Total_Precipitation_Accumulation
0.28 0.35 0.38 0.41 0.46 0.53 0.54 0.55 0.65 0.86 1.00 1.09 1.16 1.20 1.10 1.10 1.15 1.10 1.01 1.03 0.96 0.95 0.94 0.88 0.88 0.88 0.87 0.86 0.86 0.82 0.78 0.75 0.77 0.82 0.79 0.76 0.75 0.72 0.66 0.61 0.59 0.60 0.60
0.30 0.35 0.40 0.46 0.47 0.53 0.58 0.57 0.58 0.73 0.88 0.94 1.05 1.20 1.21 1.19 1.26 1.21 1.13 1.15 1.00 0.89 0.89 0.89 0.88 0.89 0.89 0.87 0.85 0.85 0.83 0.79 0.77 0.82 0.83 0.75 0.70 0.66 0.59 0.55 0.54 0.57 0.62
0.30 0.35 0.42 0.48 0.54 0.54 0.56 0.57 0.58 0.67 0.82 0.99 1.12 1.25 1.45 1.41 1.37 1.30 1.20 1.23 1.20 0.97 0.87 0.86 0.89 0.89 0.91 0.91 0.85 0.83 0.86 0.87 0.82 0.82 0.97 0.99 0.76 0.61 0.55 0.55 0.54 0.54 0.53
0.33 0.37 0.44 0.49 0.58 0.57 0.57 0.56 0.61 0.67 0.79 0.97 1.10 1.09 1.17 1.22 1.09 1.04 1.07 1.14 1.29 1.20 0.94 0.83 0.80 0.81 0.85 0.90 0.94 0.88 0.85 0.90 0.88 0.84 0.81 0.81 0.77 0.84 0.69 0.49 0.46 0.45 0.46
0.37 0.42 0.46 0.48 0.58 0.61 0.59 0.59 0.65 0.69 0.75 0.91 1.05 1.11 1.09 1.10 1.13 1.06 1.01 1.06 1.14 1.21 1.13 0.92 0.86 0.84 0.82 0.82 0.89 0.94 0.91 0.90 0.88 0.87 0.82 0.76 0.69 0.73 0.90 0.66 0.44 0.41 0.41
0.41 0.46 0.49 0.54 0.63 0.66 0.66 0.65 0.67 0.72 0.73 0.82 0.96 1.06 1.08 1.11 1.18 1.16 1.01 0.98 1.08 1.15 1.16 1.07 0.93 0.89 0.85 0.80 0.83 0.88 0.88 0.91 0.91 0.89 0.87 0.89 0.89 0.79 0.87 0.82 0.53 0.45 0.40
0.41 0.43 0.47 0.56 0.65 0.70 0.68 0.66 0.67 0.76 0.79 0.84 0.88 0.92 0.99 1.07 1.13 1.18 1.14 1.07 1.06 1.13 1.17 1.14 1.02 0.92 0.91 0.87 0.85 0.90 0.88 0.89 0.92 0.91 0.89 0.90 0.89 0.85 0.91 0.98 0.79 0.58 0.44
0.37 0.40 0.39 0.44 0.56 0.69 0.75 0.71 0.64 0.68 0.78 0.86 0.86 0.89 0.96 1.04 1.04 1.07 1.14 1.14 1.09 1.11 1.21 1.23 1.16 1.05 1.03 1.04 1.03 1.03 1.00 0.97 0.95 0.93 0.92 0.95 0.91 0.92 0.98 1.07 1.15 1.00 0.62
0.34 0.34 0.34 0.37 0.43 0.53 0.63 0.73 0.71 0.68 0.68 0.79 0.90 0.90 0.94 1.01 1.00 0.99 1.02 1.04 1.01 1.01 1.07 1.17 1.24 1.25 1.21 1.18 1.21 1.22 1.16 1.15 1.11 1.07 1.04 1.04 0.99 0.95 0.97 1.02 1.21 1.48 1.26
0.36 0.32 0.30 0.35 0.39 0.43 0.47 0.61 0.74 0.74 0.74 0.75 0.85 0.93 0.94 0.98 1.03 1.03 1.01 1.03 1.06 1.06 1.02 1.03 1.09 1.17 1.24 1.24 1.22 1.23 1.24 1.28 1.26 1.26 1.25 1.20 1.16 1.14 1.11 1.12 1.18 1.39 1.61
0.47 0.41 0.33 0.35 0.38 0.45 0.51 0.52 0.65 0.75 0.79 0.75 0.78 0.87 0.95 0.96 1.04 1.11 1.11 1.09 1.15 1.20 1.15 1.09 1.05 1.02 1.07 1.19 1.27 1.26 1.27 1.32 1.29 1.29 1.31 1.28 1.25 1.28 1.28 1.29 1.30 1.34 1.54
0.46 0.42 0.36 0.36 0.40 0.47 0.52 0.53 0.63 0.68 0.76 0.80 0.80 0.83 0.94 0.98 1.02 1.09 1.16 1.16 1.18 1.22 1.21 1.20 1.14 1.02 0.99 1.07 1.17 1.21 1.23 1.27 1.25 1.25 1.30 1.30 1.30 1.34 1.34 1.39 1.38 1.36 1.41
0.40 0.37 0.37 0.39 0.46 0.50 0.52 0.56 0.64 0.66 0.68 0.74 0.83 0.84 0.88 0.97 1.07 1.13 1.17 1.19 1.16 1.21 1.23 1.24 1.23 1.16 1.09 1.12 1.15 1.17 1.19 1.18 1.17 1.16 1.21 1.25 1.33 1.38 1.37 1.38 1.39 1.35 1.31
0.38 0.38 0.41 0.44 0.50 0.54 0.55 0.61 0.65 0.68 0.74 0.76 0.77 0.88 0.96 0.96 1.02 1.11 1.17 1.24 1.25 1.23 1.26 1.25 1.26 1.27 1.27 1.36 1.37 1.27 1.25 1.17 1.13 1.11 1.15 1.22 1.33 1.42 1.50 1.60 1.51 1.44 1.50
0.40 0.44 0.46 0.50 0.57 0.60 0.61 0.69 0.75 0.77 0.86 0.95 0.92 0.90 0.96 0.98 0.97 1.03 1.06 1.14 1.23 1.24 1.21 1.18 1.18 1.22 1.33 1.63 1.67 1.48 1.35 1.26 1.19 1.13 1.11 1.13 1.33 1.57 1.80 1.94 1.88 1.83 1.91
0.46 0.49 0.50 0.54 0.63 0.70 0.79 0.88 0.94 0.95 0.99 1.09 1.09 0.98 0.94 0.95 0.97 1.00 1.02 1.05 1.11 1.14 1.13 1.10 1.09 1.17 1.32 1.77 1.85 1.65 1.39 1.31 1.28 1.24 1.16 1.14 1.24 1.35 1.56 1.79 1.87 1.94 2.08
0.45 0.50 0.52 0.58 0.68 0.80 0.95 1.06 1.05 1.01 1.07 1.11 1.17 1.13 1.00 0.94 0.94 0.94 0.95 0.95 0.98 1.02 1.02 1.02 1.05 1.05 1.23 1.70 1.73 1.56 1.27 1.19 1.18 1.16 1.10 1.10 1.09 1.18 1.10 1.25 1.37 1.45 1.65
0.50 0.55 0.63 0.64 0.70 0.82 0.96 1.05 1.08 1.06 1.11 1.15 1.13 1.09 0.99 0.90 0.91 0.94 0.91 0.85 0.86 0.91 0.94 0.96 0.98 0.96 1.02 1.45 1.68 1.53 1.13 1.07 1.12 1.11 1.09 1.09 1.05 1.06 1.17 1.22 1.24 1.15 1.17
0.51 0.58 0.64 0.64 0.67 0.75 0.87 0.93 0.96 0.95 1.00 1.06 1.05 1.02 0.97 0.92 0.94 0.98 0.93 0.85 0.84 0.87 0.86 0.87 0.91 0.92 0.95 1.24 1.64 1.68 1.23 1.18 1.14 1.13 1.24 1.29 1.19 1.27 1.48 1.55 1.48 1.25 1.08
0.38 0.49 0.58 0.55 0.56 0.65 0.71 0.76 0.82 0.82 0.84 0.89 0.93 0.97 0.93 0.91 0.96 0.99 0.95 0.91 0.89 0.92 0.93 0.92 0.94 0.94 0.91 1.13 1.56 1.85 1.42 1.34 1.21 1.19 1.30 1.62 1.57 1.58 1.64 1.63 1.66 1.59 1.25
0.33 0.37 0.47 0.55 0.60 0.68 0.71 0.72 0.75 0.78 0.77 0.77 0.80 0.91 0.93 0.90 0.92 0.96 0.99 0.98 0.98 1.00 1.02 1.00 0.98 0.97 0.94 1.00 1.31 1.79 1.67 1.47 1.38 1.36 1.39 1.50 1.64 1.63 1.66 1.72 1.68 1.73 1.64
0.31 0.37 0.45 0.56 0.65 0.68 0.68 0.66 0.73 0.75 0.71 0.74 0.77 0.81 0.90 0.89 0.90 0.94 0.93 0.92 0.99 1.06 1.08 1.07 1.05 1.01 0.99 1.01 1.16 1.52 1.75 1.68 1.46 1.40 1.29 1.38 1.58 1.62 1.66 1.62 1.66 1.79 1.81
0.34 0.39 0.46 0.54 0.62 0.63 0.62 0.66 0.72 0.73 0.70 0.72 0.77 0.82 0.88 0.89 0.87 0.87 0.89 0.86 0.87 0.97 1.04 1.06 1.08 1.05 1.02 1.06 1.22 1.30 1.41 1.53 1.43 1.39 1.58 1.57 1.56 1.51 1.44 1.48 1.57 1.55 1.50
0.39 0.41 0.44 0.52 0.57 0.56 0.59 0.68 0.73 0.73 0.70 0.76 0.81 0.85 0.91 0.94 0.89 0.83 0.83 0.84 0.89 1.05 1.14 1.12 1.10 1.05 1.02 1.09 1.28 1.33 1.30 1.38 1.40 1.40 1.51 1.50 1.38 1.28 1.27 1.34 1.36 1.33 1.39
0.47 0.47 0.50 0.56 0.55 0.50 0.52 0.64 0.73 0.75 0.75 0.76 0.82 0.88 0.92 0.94 0.92 0.86 0.86 0.90 0.93 1.15 1.43 1.38 1.34 1.34 1.33 1.41 1.71 1.70 1.58 1.59 1.61 1.63 1.59 1.45 1.30 1.22 1.15 1.12 1.11 1.14 1.29
0.54 0.52 0.50 0.50 0.49 0.46 0.47 0.56 0.65 0.72 0.75 0.75 0.79 0.86 0.94 0.96 0.92 0.87 0.89 0.93 0.94 1.03 1.07 1.12 1.25 1.26 1.43 1.60 1.59 1.53 1.51 1.57 1.61 1.64 1.53 1.31 1.18 1.13 1.08 1.08 1.09 1.08 1.13